Date String (YYYY-MM-DD hh:mm:ss) UTC,Instrument flags,absolute air pressure of the measurement (hPa),sample flow rate (lpm),inlet stack bypass flow (lpm),air temperature of the measurement (°C),ambient temperature measured by the external sensor (°C),aerosol sample conditioner tube jacket temperature (°C),OPC LED temperature (°C),internal box temperature (°C),relative humidity of the measurement (%),span deviation,mass concentration of particles derived from Lorenz-Mie calculation of OPC scattering (μg/m³),mass concentration of particles derived from Lorenz-Mie calculation of OPC scattering (μg/m³),mass concentration of particles derived from Lorenz-Mie calculation of OPC scattering (μg/m³)
DateTimeUTC,F1_M11,P_M11,Q1_M11,Q2_M11,T1_M11,T2_M11,T3_M11,T4_M11,T5_M11,U1_M11,ZSPAN_M11,X0_M11,X2_M11,X1_M11
2024-03-22 02:00:00,SystemResetWarning,0824.9,5.00,000.00,025.6,025.0,000.0,034.0,027.5,10.2,0000.0,0006.97,0002.54,0001.34
2024-03-22 02:01:00,SystemResetWarning,0824.9,5.00,000.00,025.7,025.0,000.0,034.0,027.5,10.5,0000.0,0007.04,0002.50,0001.35
2024-03-22 02:02:00,SystemResetWarning,0824.9,5.00,000.00,025.7,025.0,000.0,034.0,027.5,09.9,0000.0,0007.05,0002.42,0001.35
2024-03-22 02:03:00,SystemResetWarning,0824.9,4.99,000.00,025.7,025.0,000.0,034.1,027.5,10.1,0000.0,0006.98,0002.39,0001.33
2024-03-22 02:04:00,SystemResetWarning,0824.9,5.00,000.00,025.7,025.0,000.0,034.1,027.5,10.8,0000.0,0007.10,0002.40,0001.34
2024-03-22 02:05:00,SystemResetWarning,0824.9,5.00,000.00,025.7,025.0,000.0,034.1,027.6,10.7,0000.0,0007.03,0002.35,0001.33
2024-03-22 02:06:00,SystemResetWarning,0824.9,5.00,000.00,025.7,025.0,000.0,034.1,027.6,10.7,0000.0,0006.95,0002.36,0001.34
2024-03-22 02:07:00,SystemResetWarning,0824.9,5.01,000.00,025.7,025.0,000.0,034.1,027.6,10.8,0000.0,0006.93,0002.35,0001.33
2024-03-22 02:08:00,SystemResetWarning,0824.9,5.00,000.00,025.7,025.0,000.0,034.1,027.6,10.8,0000.0,0006.17,0002.36,0001.34
2024-03-22 02:09:00,SystemResetWarning,0824.9,5.00,000.00,025.7,025.0,000.0,034.1,027.6,10.3,0000.0,0007.31,0002.47,0001.33
2024-03-22 02:10:00,SystemResetWarning,0824.9,5.01,000.00,025.7,025.0,000.0,034.2,027.6,10.1,0000.0,0007.47,0002.56,0001.33
2024-03-22 02:11:00,SystemResetWarning,0824.9,5.01,000.00,025.7,025.0,000.0,034.2,027.6,10.6,0000.0,0008.09,0002.57,0001.34
2024-03-22 02:12:00,SystemResetWarning,0824.9,5.00,000.00,025.7,025.0,000.0,034.2,027.6,11.2,0000.0,0008.04,0002.57,0001.32
2024-03-22 02:13:00,SystemResetWarning,0824.9,5.00,000.00,025.8,025.0,000.0,034.2,027.6,11.2,0000.0,0007.89,0002.58,0001.32
2024-03-22 02:14:00,SystemResetWarning,0824.9,5.00,000.00,025.8,025.0,000.0,034.2,027.6,11.2,0000.0,0007.95,0002.61,0001.34
2024-03-22 02:15:00,SystemResetWarning,0825.0,5.00,000.00,025.8,025.0,000.0,034.2,027.6,11.2,0000.0,0007.93,0002.62,0001.34
2024-03-22 02:16:00,SystemResetWarning,0825.1,5.00,000.00,025.8,025.0,000.0,034.2,027.6,10.7,0000.0,0007.83,0002.64,0001.35
2024-03-22 02:17:00,SystemResetWarning,0825.1,5.01,000.00,025.8,025.0,000.0,034.2,027.6,10.9,0000.0,0007.83,0002.61,0001.36
2024-03-22 02:18:00,SystemResetWarning,0825.1,5.00,000.00,025.8,025.0,000.0,034.2,027.6,11.0,0000.0,0007.98,0002.69,0001.37
2024-03-22 02:19:00,SystemResetWarning,0825.1,5.00,000.00,025.8,025.0,000.0,034.2,027.6,11.0,0000.0,0007.96,0002.69,0001.37
2024-03-22 02:20:00,SystemResetWarning,0825.1,5.00,000.00,025.8,025.0,000.0,034.3,027.6,11.1,0000.0,0006.78,0002.61,0001.38
2024-03-22 02:21:00,SystemResetWarning,0825.1,5.00,000.00,025.8,025.0,000.0,034.3,027.6,11.0,0000.0,0006.47,0002.57,0001.38
2024-03-22 02:22:00,SystemResetWarning,0825.1,5.00,000.00,025.8,025.0,000.0,034.3,027.6,11.1,0000.0,0005.52,0002.56,0001.37
2024-03-22 02:23:00,SystemResetWarning,0825.1,5.00,000.00,025.8,025.0,000.0,034.3,027.6,11.0,0000.0,0005.36,0002.53,0001.37
2024-03-22 02:24:00,SystemResetWarning,0825.2,5.00,000.00,025.8,025.0,000.0,034.3,027.6,11.4,0000.0,0005.44,0002.53,0001.38
2024-03-22 02:25:00,SystemResetWarning,0825.2,4.99,000.00,025.8,025.0,000.0,034.3,027.7,10.6,0000.0,0005.33,0002.49,0001.37
2024-03-22 02:26:00,SystemResetWarning,0825.2,4.99,000.00,025.8,025.0,000.0,034.3,027.6,10.9,0000.0,0005.51,0002.56,0001.38
2024-03-22 02:27:00,SystemResetWarning,0825.2,5.00,000.00,025.8,025.0,000.0,034.3,027.6,11.1,0000.0,0005.66,0002.60,0001.38
2024-03-22 02:28:00,SystemResetWarning,0825.2,5.00,000.00,025.8,025.0,000.0,034.3,027.6,11.2,0000.0,0005.89,0002.69,0001.39
2024-03-22 02:29:00,SystemResetWarning,0825.2,5.01,000.00,025.8,025.0,000.0,034.3,027.6,10.8,0000.0,0005.57,0002.63,0001.39
2024-03-22 02:30:00,SystemResetWarning,0825.2,5.00,000.00,025.8,025.0,000.0,034.3,027.6,11.6,0000.0,0005.76,0002.68,0001.40
2024-03-22 02:31:00,SystemResetWarning,0825.3,5.00,000.00,025.8,025.0,000.0,034.3,027.6,11.5,0000.0,0005.92,0002.73,0001.41
2024-03-22 02:32:00,SystemResetWarning,0825.3,5.01,000.00,025.8,025.0,000.0,034.3,027.6,11.4,0000.0,0005.94,0002.72,0001.41
2024-03-22 02:33:00,SystemResetWarning,0825.3,5.00,000.00,025.8,025.0,000.0,034.3,027.6,10.9,0000.0,0005.91,0002.77,0001.43
2024-03-22 02:34:00,SystemResetWarning,0825.3,5.00,000.00,025.8,025.0,000.0,034.3,027.6,11.2,0000.0,0005.84,0002.77,0001.43
2024-03-22 02:35:00,SystemResetWarning,0825.3,4.99,000.00,025.8,025.0,000.0,034.3,027.6,11.1,0000.0,0006.88,0002.83,0001.44
2024-03-22 02:36:00,SystemResetWarning,0825.4,5.00,000.00,025.8,025.0,000.0,034.3,027.6,11.3,0000.0,0007.56,0002.82,0001.43
2024-03-22 02:37:00,SystemResetWarning,0825.4,5.00,000.00,025.8,024.9,000.0,034.3,027.6,11.2,0000.0,0007.46,0002.77,0001.42
2024-03-22 02:38:00,SystemResetWarning,0825.4,4.99,000.00,025.8,024.9,000.0,034.3,027.6,10.9,0000.0,0007.50,0002.76,0001.42
2024-03-22 02:39:00,SystemResetWarning,0825.4,5.00,000.00,025.8,024.9,000.0,034.3,027.6,10.8,0000.0,0008.22,0002.71,0001.40
2024-03-22 02:40:00,SystemResetWarning,0825.4,5.00,000.00,025.8,024.9,000.0,034.3,027.6,10.8,0000.0,0008.60,0002.70,0001.38
2024-03-22 02:41:00,SystemResetWarning,0825.4,5.00,000.00,025.8,024.9,000.0,034.3,027.6,11.1,0000.0,0008.50,0002.62,0001.36
2024-03-22 02:42:00,SystemResetWarning,0825.5,5.00,000.00,025.8,024.9,000.0,034.3,027.6,11.0,0000.0,0008.41,0002.54,0001.35
2024-03-22 02:43:00,SystemResetWarning,0825.5,5.00,000.00,025.8,024.9,000.0,034.3,027.6,10.9,0000.0,0008.41,0002.55,0001.36
2024-03-22 02:44:00,SystemResetWarning,0825.5,5.00,000.00,025.7,024.9,000.0,034.3,027.6,10.9,0000.0,0008.32,0002.45,0001.33
2024-03-22 02:45:00,SystemResetWarning,0825.6,5.00,000.00,025.7,024.9,000.0,034.3,027.6,10.9,0000.0,0008.32,0002.45,0001.33
2024-03-22 02:46:00,SystemResetWarning,0825.5,5.00,000.00,025.7,024.9,000.0,034.3,027.6,11.0,0000.0,0008.01,0002.38,0001.31
2024-03-22 02:47:00,SystemResetWarning,0825.6,5.00,000.00,025.7,024.9,000.0,034.3,027.6,10.9,0000.0,0007.21,0002.38,0001.31
2024-03-22 02:48:00,SystemResetWarning,0825.6,5.00,000.00,025.7,024.9,000.0,034.3,027.6,10.8,0000.0,0007.32,0002.41,0001.31
2024-03-22 02:49:00,SystemResetWarning,0825.6,4.99,000.00,025.7,024.9,000.0,034.3,027.6,10.8,0000.0,0007.48,0002.48,0001.31
2024-03-22 02:50:00,SystemResetWarning,0825.6,4.99,000.00,025.7,024.9,000.0,034.3,027.5,10.9,0000.0,0006.73,0002.47,0001.32
2024-03-22 02:51:00,SystemResetWarning,0825.6,5.00,000.00,025.7,024.8,000.0,034.3,027.5,10.8,0000.0,0006.90,0002.44,0001.33
2024-03-22 02:52:00,SystemResetWarning,0825.6,4.99,000.00,025.7,024.8,000.0,034.3,027.5,11.0,0000.0,0006.69,0002.44,0001.35
2024-03-22 02:53:00,SystemResetWarning,0825.6,5.00,000.00,025.7,024.8,000.0,034.3,027.5,11.2,0000.0,0006.60,0002.43,0001.35
2024-03-22 02:54:00,SystemResetWarning,0825.7,5.02,000.00,025.7,024.8,000.0,034.3,027.5,11.2,0000.0,0006.92,0002.42,0001.36
2024-03-22 02:55:00,SystemResetWarning,0825.7,5.01,000.00,025.7,024.8,000.0,034.3,027.5,11.4,0000.0,0007.43,0002.45,0001.37
2024-03-22 02:56:00,SystemResetWarning,0825.7,5.00,000.00,025.7,024.8,000.0,034.3,027.5,11.4,0000.0,0007.41,0002.45,0001.39
2024-03-22 02:57:00,SystemResetWarning,0825.7,5.00,000.00,025.7,024.8,000.0,034.2,027.5,11.3,0000.0,0007.43,0002.51,0001.41
2024-03-22 02:58:00,SystemResetWarning,0825.8,5.00,000.00,025.6,024.8,000.0,034.2,027.5,11.4,0000.0,0007.58,0002.57,0001.41
2024-03-22 02:59:00,SystemResetWarning,0825.7,5.00,000.00,025.6,024.8,000.0,034.2,027.5,11.7,0000.0,0007.69,0002.61,0001.42
